This demonstration page uses our WeatherBlox Daily Observations layout. Learn more.

Left ArrowRight Arrow

36.17497, -115.13722

Hourly Observations for February 18, 2019

Temp ( °F °C ) Dew Point ( °F °C ) Humidity (%) Winds ( mph kmh ) Pressure ( in mb ) Visibility ( mi km ) Precip ( " mm )
12:02 am 00:02 Cloudy with Light Rain 37 2.8 34 1.1 89 89 NNW 7 11 29.94 1014 10 16 0.00 0.03
12:53 am 00:53 Cloudy 38 3.3 33 0.6 83 83 NW 7 11 29.94 1014 10 16 0.00 0.03
1:53 am 01:53 Cloudy 38 3.3 33 0.6 83 83 Calm 29.94 1014 10 16 0.00 0.00
2:53 am 02:53 Cloudy 39 3.9 32 0 76 76 NNW 5 7 29.93 1014 10 16 0.00 0.00
3:53 am 03:53 Cloudy 38 3.3 30 -1.1 73 73 N 9 15 29.93 1014 10 16 0.00 0.00
4:53 am 04:53 Clear 37 2.8 27 -2.8 67 67 N 13 20 29.95 1014 10 16 0.00 0.00
5:53 am 05:53 Clear 37 2.8 24 -4.4 59 59 N 13 20 29.96 1015 10 16 0.00 0.00
6:53 am 06:53 Sunny 37 2.8 22 -5.6 54 54 N 10 17 29.99 1016 10 16 0.00 0.00
7:53 am 07:53 Sunny 39 3.9 21 -6.1 48 48 NNW 14 22 30.02 1017 10 16 0.00 0.00
8:53 am 08:53 Sunny 41 5 19 -7.2 41 41 NNW 22 35 30.04 1017 10 16 0.00 0.00
9:53 am 09:53 Sunny 43 6.1 17 -8.3 35 35 NNW 26 43 30.04 1017 10 16 0.00 0.00
10:53 am 10:53 Sunny 45 7.2 18 -7.8 34 34 NNW 18 30 30.06 1018 10 16 0.00 0.00
11:53 am 11:53 Sunny 46 7.8 18 -7.8 32 32 NNW 21 33 30.04 1017 10 16 0.00 0.00
12:53 pm 12:53 Sunny 47 8.3 18 -7.8 31 31 NNW 22 35 30.02 1017 10 16 0.00 0.00
1:53 pm 13:53 Sunny 47 8.3 18 -7.8 31 31 NNW 21 33 30.01 1016 10 16 0.00 0.00
2:53 pm 14:53 Sunny 48 8.9 18 -7.8 30 30 NNW 22 35 30.00 1016 10 16 0.00 0.00
3:53 pm 15:53 Mostly Sunny 47 8.3 19 -7.2 33 33 NNW 16 26 30.00 1016 10 16 0.00 0.00
4:53 pm 16:53 Mostly Cloudy 45 7.2 20 -6.7 37 37 NNW 22 35 30.01 1016 10 16 0.00 0.00
5:53 pm 17:53 Mostly Clear 41 5 23 -5 49 49 NW 17 28 30.03 1017 10 16 0.00 0.00
6:53 pm 18:53 Clear 42 5.6 20 -6.7 41 41 NNW 14 22 30.05 1018 10 16 0.00 0.00
7:53 pm 19:53 Cloudy 41 5 22 -5.6 47 47 N 12 19 30.06 1018 10 16 0.00 0.00
8:53 pm 20:53 Cloudy 42 5.6 21 -6.1 43 43 NNW 16 26 30.06 1018 10 16 0.00 0.00
9:53 pm 21:53 Mostly Clear 41 5 21 -6.1 45 45 N 15 24 30.08 1019 10 16 0.00 0.00
10:53 pm 22:53 Clear 40 4.4 19 -7.2 43 43 N 7 11 30.08 1019 10 16 0.00 0.00
11:53 pm 23:53 Clear 41 5 17 -8.3 38 38 N 16 26 30.09 1019 10 16 0.00 0.00

Powered by AerisWeather